Terminal Aerodrome Forecast
Issued by NWS Lake Charles, LA

Home | Current Version | Previous Version | Text Only | Print | Product List | Glossary On
Versions: 1 2 3 4 5 6 7 8 9 10 11 12 13 14 15 16 17 18 19
000
FTUS44 KLCH 191700
TAFLCH
TAF
KLCH 191723Z 1918/2018 13007KT P6SM SCT040 SCT250
     FM200000 VRB04KT P6SM SCT250
     FM201400 12007KT P6SM SCT250=

USA.gov is the U.S. government's official web portal to all federal, state and local government web resources and services.